Tracking 18945 objects as of 20-Jan-2018
HD Live streaming from Space Station
objects crossing your sky now

HALCA (MUSES B)

Track HALCA (MUSES B) now!
10-day predictions
HALCA (MUSES B) is classified as:


NORAD ID: 24720
Int'l Code: 1997-005A
Perigee: 545.4 km
Apogee: 21,227.3 km
Inclination: 31.3 °
Period: 376.0 minutes
Semi major axis: 17257 km
RCS: 27.289 m2 (large)
Launch date: February 12, 1997
Source: Japan (JPN)
Launch site: KAGOSHIMA SPACE CENTER UNIVERSITY OF TOKYO (KSCUT)

Dedicated to Very-Long Baseline Interferometry (VLBI). Halca means "far away."
aabbcc
Your satellite tracking list
Your tracking list is empty




NASA's NSSDC Master Catalog

Two Line Element Set (TLE):
1 24720U 97005A   18019.63909127 -.00000114 +00000-0 -79609-4 0  9995
2 24720 031.2552 083.1110 5992182 051.2364 032.6636 03.82949485291893
Source of the keplerian elements: AFSPC